Location: The Saddle
(36.8333°N, 80.3417°W)
Time: 20:16:45
(UTC-05:00)

ISS - Visible Passes

Search period start: 26 November 2022 00:00
Search period end: 06 December 2022 00:00
Orbit: 411 x 421 km, 51.6° (Epoch: 26 November)

Date Brightness Start Highest point End Pass type
(mag) Time Alt. Az. Time Alt. Az. Time Alt. Az.
01 Dec -1.4 18:06:23 10° N 18:06:49 10° NNE 18:07:01 10° NNE visible
02 Dec -1.4 18:52:32 10° NNW 18:53:24 15° NNW 18:53:24 15° NNW visible
03 Dec -2.1 18:04:08 10° NNW 18:06:30 18° NNE 18:07:02 17° NE visible
04 Dec -3.0 18:51:23 10° NW 18:53:46 43° NNW 18:53:46 43° NNW visible
05 Dec -3.3 18:02:42 10° NW 18:05:51 39° NE 18:07:50 19° E visible
05 Dec -0.5 19:40:02 10° W 19:40:47 13° W 19:40:47 13° W visible
